QPF
0.00 0.00 0.00 0.00 0.00 0.00 0.00 0.00 0.00 0.00 0.00 0.00 0.00 0.00 0.00 0.00 0.00 0.00 0.00 0.00 0.00 0.00 0.00 0.00 0.00 0.00 0.01 0.01 0.01 0.01 0.01 0.01 0.01 0.01 0.01 0.01 0.01 0.01 0.01 0.01 0.01 0.02 0.01 0.01 0.01 0.00 0.00 0.00 0.00
0.00 0.00 0.00 0.00 0.00 0.00 0.00 0.00 0.00 0.00 0.00 0.00 0.00 0.00 0.00 0.00 0.00 0.00 0.00 0.00 0.00 0.00 0.00 0.00 0.00 0.00 0.01 0.01 0.00 0.00 0.00 0.00 0.00 0.00 0.00 0.00 0.00 0.01 0.01 0.01 0.01 0.01 0.01 0.01 0.00 0.00 0.00 0.00 0.00
0.00 0.00 0.00 0.00 0.00 0.00 0.00 0.00 0.00 0.00 0.00 0.00 0.00 0.00 0.00 0.00 0.00 0.00 0.00 0.00 0.00 0.00 0.00 0.00 0.00 0.00 0.01 0.00 0.00 0.00 0.00 0.00 0.00 0.00 0.00 0.00 0.00 0.00 0.01 0.01 0.01 0.01 0.01 0.01 0.00 0.00 0.00 0.00 0.00
0.00 0.00 0.00 0.00 0.00 0.00 0.00 0.00 0.00 0.00 0.00 0.00 0.00 0.00 0.00 0.00 0.00 0.00 0.00 0.00 0.00 0.00 0.00 0.00 0.00 0.00 0.01 0.01 0.00 0.00 0.00 0.00 0.00 0.00 0.00 0.00 0.00 0.00 0.01 0.01 0.01 0.01 0.01 0.01 0.00 0.00 0.00 0.00 0.00
0.00 0.00 0.00 0.00 0.00 0.00 0.00 0.00 0.00 0.00 0.00 0.00 0.00 0.00 0.00 0.00 0.00 0.00 0.00 0.00 0.00 0.00 0.00 0.00 0.00 0.00 0.01 0.01 0.01 0.00 0.00 0.00 0.00 0.00 0.00 0.00 0.00 0.00 0.01 0.01 0.01 0.01 0.02 0.02 0.01 0.01 0.00 0.00 0.00
0.00 0.00 0.00 0.00 0.00 0.00 0.00 0.00 0.00 0.00 0.00 0.00 0.00 0.00 0.00 0.00 0.00 0.00 0.00 0.00 0.00 0.00 0.00 0.00 0.00 0.00 0.01 0.01 0.01 0.01 0.01 0.00 0.00 0.00 0.00 0.00 0.00 0.00 0.00 0.01 0.02 0.02 0.03 0.03 0.02 0.01 0.00 0.00 0.00
0.00 0.00 0.00 0.00 0.00 0.00 0.00 0.00 0.00 0.00 0.00 0.00 0.00 0.00 0.00 0.00 0.00 0.00 0.00 0.00 0.00 0.00 0.00 0.00 0.00 0.00 0.00 0.01 0.01 0.01 0.01 0.00 0.00 0.00 0.00 0.00 0.00 0.00 0.00 0.01 0.02 0.03 0.03 0.03 0.02 0.00 0.00 0.00 0.00
0.00 0.00 0.00 0.00 0.00 0.00 0.00 0.00 0.00 0.00 0.00 0.00 0.00 0.00 0.00 0.00 0.00 0.00 0.00 0.00 0.00 0.00 0.00 0.00 0.00 0.00 0.00 0.00 0.00 0.00 0.00 0.00 0.00 0.00 0.00 0.00 0.00 0.00 0.00 0.01 0.02 0.02 0.02 0.01 0.00 0.00 0.00 0.00 0.00
0.00 0.00 0.00 0.00 0.00 0.00 0.00 0.00 0.00 0.00 0.00 0.00 0.00 0.00 0.00 0.00 0.00 0.00 0.00 0.00 0.00 0.00 0.00 0.00 0.00 0.00 0.00 0.00 0.00 0.00 0.00 0.00 0.00 0.00 0.00 0.00 0.00 0.00 0.01 0.00 0.01 0.01 0.01 0.01 0.00 0.00 0.00 0.00 0.00
0.00 0.00 0.00 0.00 0.00 0.00 0.00 0.00 0.00 0.00 0.00 0.00 0.00 0.00 0.00 0.00 0.00 0.00 0.00 0.00 0.00 0.00 0.00 0.00 0.00 0.00 0.00 0.00 0.00 0.00 0.00 0.00 0.00 0.00 0.00 0.00 0.01 0.02 0.01 0.01 0.01 0.01 0.01 0.00 0.00 0.00 0.00 0.00 0.00
0.00 0.00 0.00 0.00 0.00 0.00 0.00 0.00 0.00 0.00 0.00 0.00 0.00 0.00 0.00 0.00 0.00 0.00 0.00 0.00 0.00 0.00 0.00 0.00 0.00 0.00 0.00 0.00 0.00 0.00 0.00 0.00 0.00 0.00 0.00 0.01 0.01 0.01 0.00 0.01 0.01 0.01 0.01 0.01 0.00 0.00 0.00 0.00 0.00
0.00 0.00 0.00 0.00 0.00 0.00 0.00 0.00 0.00 0.00 0.00 0.00 0.00 0.00 0.00 0.00 0.00 0.00 0.00 0.00 0.00 0.00 0.00 0.00 0.00 0.00 0.00 0.00 0.00 0.00 0.00 0.00 0.00 0.00 0.00 0.01 0.02 0.01 0.01 0.01 0.01 0.02 0.02 0.02 0.00 0.00 0.00 0.00 0.00
0.00 0.00 0.00 0.00 0.00 0.00 0.00 0.00 0.00 0.00 0.00 0.00 0.00 0.00 0.00 0.00 0.00 0.00 0.00 0.00 0.00 0.00 0.00 0.00 0.00 0.00 0.00 0.00 0.00 0.00 0.00 0.00 0.00 0.00 0.00 0.00 0.01 0.01 0.01 0.01 0.02 0.02 0.01 0.01 0.00 0.00 0.00 0.00 0.00
0.00 0.00 0.00 0.00 0.00 0.00 0.00 0.00 0.00 0.00 0.00 0.00 0.00 0.00 0.00 0.00 0.00 0.00 0.00 0.00 0.00 0.00 0.00 0.00 0.00 0.00 0.00 0.00 0.00 0.00 0.00 0.00 0.00 0.00 0.00 0.00 0.01 0.01 0.02 0.02 0.03 0.02 0.02 0.01 0.01 0.00 0.00 0.00 0.00
0.00 0.00 0.00 0.00 0.00 0.00 0.00 0.00 0.00 0.00 0.00 0.00 0.00 0.00 0.00 0.00 0.00 0.00 0.00 0.00 0.00 0.00 0.00 0.00 0.00 0.00 0.00 0.00 0.00 0.00 0.00 0.00 0.01 0.01 0.01 0.01 0.01 0.02 0.04 0.04 0.04 0.04 0.03 0.02 0.01 0.01 0.01 0.01 0.00
0.00 0.00 0.00 0.00 0.00 0.00 0.00 0.00 0.00 0.00 0.00 0.00 0.00 0.00 0.00 0.00 0.00 0.00 0.00 0.00 0.00 0.00 0.00 0.00 0.00 0.00 0.00 0.00 0.00 0.00 0.00 0.01 0.02 0.02 0.02 0.02 0.03 0.04 0.06 0.06 0.06 0.06 0.05 0.05 0.05 0.04 0.03 0.04 0.04
0.00 0.00 0.00 0.00 0.00 0.00 0.00 0.00 0.00 0.00 0.00 0.00 0.00 0.00 0.00 0.00 0.00 0.00 0.00 0.00 0.00 0.00 0.00 0.00 0.00 0.00 0.00 0.00 0.00 0.00 0.01 0.02 0.03 0.04 0.06 0.06 0.08 0.10 0.11 0.10 0.11 0.11 0.11 0.10 0.09 0.09 0.09 0.08 0.07
0.00 0.00 0.00 0.00 0.00 0.00 0.00 0.00 0.00 0.00 0.00 0.00 0.00 0.00 0.00 0.00 0.00 0.00 0.00 0.00 0.00 0.00 0.00 0.00 0.00 0.00 0.00 0.00 0.00 0.01 0.03 0.06 0.10 0.13 0.17 0.20 0.22 0.22 0.21 0.19 0.19 0.18 0.15 0.13 0.12 0.11 0.10 0.09 0.07
0.00 0.00 0.00 0.00 0.00 0.00 0.00 0.00 0.00 0.00 0.00 0.00 0.00 0.00 0.00 0.00 0.00 0.00 0.00 0.00 0.00 0.00 0.00 0.00 0.00 0.01 0.01 0.02 0.04 0.07 0.14 0.23 0.33 0.44 0.50 0.48 0.45 0.42 0.39 0.32 0.27 0.22 0.17 0.14 0.11 0.11 0.09 0.07 0.05
0.00 0.00 0.00 0.00 0.00 0.00 0.00 0.00 0.00 0.00 0.00 0.00 0.00 0.00 0.00 0.00 0.00 0.00 0.00 0.00 0.00 0.00 0.00 0.00 0.01 0.03 0.05 0.11 0.20 0.35 0.51 0.56 0.62 0.63 0.61 0.62 0.62 0.60 0.56 0.50 0.43 0.32 0.24 0.19 0.15 0.13 0.10 0.08 0.05
0.00 0.00 0.00 0.00 0.00 0.00 0.00 0.00 0.00 0.00 0.00 0.00 0.00 0.00 0.00 0.00 0.00 0.00 0.00 0.00 0.00 0.00 0.01 0.01 0.02 0.08 0.15 0.25 0.43 0.64 0.78 0.81 0.82 0.77 0.69 0.66 0.67 0.65 0.64 0.63 0.53 0.40 0.30 0.24 0.19 0.15 0.12 0.07 0.03
0.00 0.00 0.00 0.00 0.00 0.00 0.00 0.00 0.00 0.00 0.00 0.00 0.00 0.00 0.00 0.00 0.00 0.00 0.00 0.00 0.00 0.00 0.01 0.03 0.05 0.16 0.27 0.38 0.58 0.75 0.96 1.14 1.17 1.02 0.80 0.66 0.61 0.59 0.54 0.49 0.43 0.37 0.28 0.19 0.12 0.07 0.03 0.01 0.00
0.00 0.00 0.00 0.00 0.00 0.00 0.00 0.00 0.00 0.00 0.00 0.00 0.00 0.00 0.00 0.00 0.00 0.00 0.00 0.00 0.00 0.00 0.01 0.04 0.07 0.17 0.30 0.45 0.62 0.77 0.97 1.08 1.07 0.85 0.63 0.54 0.55 0.54 0.49 0.41 0.33 0.23 0.14 0.06 0.03 0.01 0.00 0.00 0.00
0.00 0.00 0.00 0.00 0.00 0.00 0.00 0.00 0.00 0.00 0.00 0.00 0.00 0.00 0.00 0.00 0.00 0.00 0.00 0.00 0.00 0.01 0.01 0.03 0.07 0.15 0.25 0.37 0.48 0.61 0.71 0.72 0.61 0.52 0.51 0.54 0.48 0.40 0.33 0.24 0.15 0.09 0.04 0.02 0.01 0.00 0.00 0.00 0.00
0.00 0.00 0.00 0.00 0.00 0.00 0.00 0.00 0.00 0.00 0.00 0.00 0.00 0.01 0.01 0.01 0.01 0.01 0.01 0.01 0.01 0.02 0.02 0.04 0.08 0.16 0.23 0.28 0.35 0.46 0.53 0.52 0.47 0.44 0.42 0.37 0.32 0.25 0.16 0.10 0.07 0.04 0.02 0.01 0.00 0.00 0.00 0.00 0.00
0.00 0.00 0.00 0.00 0.00 0.00 0.00 0.00 0.00 0.00 0.01 0.01 0.01 0.01 0.01 0.01 0.01 0.01 0.01 0.01 0.01 0.02 0.03 0.04 0.08 0.14 0.16 0.18 0.21 0.25 0.28 0.30 0.31 0.28 0.22 0.19 0.15 0.11 0.08 0.06 0.04 0.02 0.01 0.00 0.00 0.00 0.00 0.00 0.00
0.00 0.00 0.00 0.00 0.00 0.00 0.00 0.00 0.00 0.01 0.01 0.01 0.01 0.01 0.01 0.02 0.01 0.01 0.01 0.02 0.02 0.02 0.03 0.04 0.06 0.09 0.10 0.12 0.14 0.12 0.11 0.11 0.10 0.10 0.09 0.07 0.04 0.03 0.02 0.01 0.01 0.00 0.00 0.00 0.00 0.00 0.00 0.00 0.00
0.00 0.00 0.00 0.00 0.00 0.00 0.00 0.00 0.00 0.00 0.01 0.01 0.01 0.01 0.02 0.02 0.02 0.02 0.02 0.01 0.02 0.02 0.02 0.02 0.03 0.05 0.05 0.06 0.06 0.05 0.04 0.03 0.03 0.03 0.02 0.02 0.01 0.01 0.01 0.01 0.00 0.00 0.00 0.00 0.00 0.00 0.00 0.00 0.00
0.00 0.00 0.00 0.00 0.00 0.00 0.00 0.00 0.00 0.00 0.01 0.01 0.01 0.02 0.02 0.02 0.02 0.02 0.01 0.01 0.01 0.01 0.01 0.01 0.02 0.03 0.03 0.02 0.02 0.02 0.01 0.01 0.01 0.01 0.01 0.01 0.01 0.01 0.01 0.00 0.00 0.00 0.00 0.00 0.00 0.00 0.00 0.00 0.00
0.00 0.00 0.00 0.00 0.00 0.00 0.00 0.01 0.00 0.01 0.01 0.01 0.01 0.02 0.02 0.02 0.02 0.01 0.01 0.01 0.01 0.01 0.01 0.01 0.01 0.01 0.01 0.01 0.01 0.00 0.00 0.00 0.00 0.00 0.00 0.00 0.00 0.00 0.00 0.00 0.00 0.00 0.00 0.00 0.00 0.00 0.00 0.00 0.00
MSLP
1012.71 1013.08 1013.44 1013.69 1013.75 1013.58 1013.21 1012.70 1012.18 1011.76 1011.51 1011.46 1011.60 1011.84 1012.09 1012.26 1012.29 1012.17 1011.97 1011.76 1011.66 1011.73 1012.02 1012.51 1013.13 1013.77 1014.34 1014.76 1015.02 1015.12 1015.14 1015.17 1015.29 1015.53 1015.91 1016.38 1016.87 1017.30 1017.63 1017.81 1017.86 1017.85 1017.82 1017.85 1017.95 1018.13 1018.36 1018.58 1018.74
1012.79 1013.25 1013.68 1013.95 1013.99 1013.76 1013.31 1012.70 1012.06 1011.51 1011.15 1011.01 1011.07 1011.25 1011.47 1011.63 1011.67 1011.59 1011.45 1011.31 1011.28 1011.44 1011.82 1012.38 1013.07 1013.79 1014.42 1014.89 1015.18 1015.32 1015.36 1015.39 1015.50 1015.72 1016.06 1016.48 1016.92 1017.30 1017.59 1017.75 1017.80 1017.81 1017.82 1017.89 1018.05 1018.28 1018.54 1018.77 1018.91
1012.91 1013.42 1013.86 1014.13 1014.13 1013.85 1013.32 1012.63 1011.90 1011.28 1010.84 1010.63 1010.63 1010.78 1010.98 1011.14 1011.20 1011.16 1011.07 1011.00 1011.04 1011.26 1011.70 1012.33 1013.08 1013.84 1014.52 1015.05 1015.39 1015.57 1015.64 1015.69 1015.78 1015.98 1016.27 1016.62 1017.00 1017.32 1017.56 1017.70 1017.76 1017.80 1017.86 1017.99 1018.20 1018.47 1018.76 1018.99 1019.10
1013.05 1013.57 1013.99 1014.21 1014.16 1013.81 1013.22 1012.48 1011.72 1011.06 1010.59 1010.35 1010.33 1010.46 1010.66 1010.83 1010.92 1010.93 1010.88 1010.87 1010.96 1011.23 1011.71 1012.37 1013.15 1013.94 1014.66 1015.23 1015.62 1015.85 1015.97 1016.04 1016.14 1016.31 1016.55 1016.85 1017.16 1017.43 1017.62 1017.74 1017.82 1017.88 1017.99 1018.18 1018.43 1018.73 1019.02 1019.23 1019.30
1013.20 1013.68 1014.04 1014.18 1014.06 1013.66 1013.03 1012.27 1011.50 1010.84 1010.38 1010.15 1010.14 1010.28 1010.49 1010.68 1010.81 1010.86 1010.87 1010.90 1011.03 1011.33 1011.82 1012.49 1013.27 1014.07 1014.80 1015.40 1015.83 1016.11 1016.28 1016.39 1016.51 1016.67 1016.89 1017.15 1017.41 1017.63 1017.79 1017.90 1017.99 1018.08 1018.23 1018.45 1018.73 1019.03 1019.30 1019.47 1019.49
1013.35 1013.74 1014.00 1014.05 1013.84 1013.38 1012.73 1011.98 1011.23 1010.61 1010.18 1009.98 1010.00 1010.16 1010.39 1010.62 1010.79 1010.89 1010.95 1011.03 1011.20 1011.51 1012.00 1012.64 1013.39 1014.17 1014.89 1015.49 1015.95 1016.27 1016.49 1016.65 1016.81 1016.99 1017.21 1017.45 1017.68 1017.87 1018.02 1018.13 1018.23 1018.35 1018.51 1018.74 1019.02 1019.30 1019.53 1019.64 1019.61
1013.44 1013.73 1013.86 1013.80 1013.51 1013.01 1012.35 1011.62 1010.91 1010.34 1009.97 1009.81 1009.85 1010.03 1010.30 1010.56 1010.77 1010.92 1011.03 1011.16 1011.36 1011.68 1012.15 1012.75 1013.45 1014.17 1014.85 1015.44 1015.90 1016.26 1016.52 1016.73 1016.93 1017.16 1017.40 1017.64 1017.88 1018.07 1018.22 1018.34 1018.45 1018.58 1018.75 1018.97 1019.21 1019.45 1019.62 1019.67 1019.58
1013.46 1013.62 1013.63 1013.46 1013.10 1012.56 1011.91 1011.21 1010.55 1010.03 1009.70 1009.57 1009.63 1009.83 1010.11 1010.40 1010.66 1010.87 1011.05 1011.23 1011.46 1011.79 1012.23 1012.78 1013.41 1014.06 1014.67 1015.21 1015.66 1016.02 1016.31 1016.57 1016.83 1017.09 1017.37 1017.65 1017.90 1018.11 1018.28 1018.41 1018.53 1018.66 1018.83 1019.02 1019.23 1019.41 1019.52 1019.52 1019.39
1013.38 1013.43 1013.33 1013.06 1012.64 1012.08 1011.44 1010.77 1010.16 1009.68 1009.37 1009.26 1009.32 1009.53 1009.81 1010.13 1010.43 1010.70 1010.94 1011.18 1011.46 1011.80 1012.22 1012.72 1013.26 1013.82 1014.35 1014.83 1015.23 1015.58 1015.88 1016.17 1016.46 1016.77 1017.09 1017.40 1017.69 1017.93 1018.12 1018.28 1018.41 1018.55 1018.70 1018.87 1019.04 1019.17 1019.23 1019.20 1019.05
1013.20 1013.15 1012.96 1012.63 1012.17 1011.60 1010.98 1010.34 1009.77 1009.31 1009.01 1008.88 1008.93 1009.12 1009.40 1009.74 1010.08 1010.41 1010.72 1011.03 1011.35 1011.71 1012.12 1012.57 1013.04 1013.51 1013.95 1014.34 1014.68 1014.99 1015.28 1015.58 1015.89 1016.23 1016.58 1016.92 1017.24 1017.52 1017.74 1017.92 1018.08 1018.22 1018.38 1018.53 1018.68 1018.78 1018.83 1018.78 1018.64
1012.94 1012.82 1012.57 1012.20 1011.72 1011.16 1010.55 1009.95 1009.39 1008.94 1008.63 1008.48 1008.49 1008.65 1008.92 1009.26 1009.64 1010.03 1010.41 1010.79 1011.17 1011.56 1011.96 1012.37 1012.78 1013.17 1013.52 1013.83 1014.11 1014.37 1014.62 1014.90 1015.22 1015.57 1015.93 1016.30 1016.65 1016.95 1017.20 1017.41 1017.59 1017.76 1017.93 1018.09 1018.24 1018.35 1018.41 1018.38 1018.29
1012.65 1012.48 1012.20 1011.81 1011.33 1010.79 1010.20 1009.62 1009.06 1008.60 1008.26 1008.08 1008.05 1008.17 1008.42 1008.76 1009.17 1009.60 1010.04 1010.49 1010.92 1011.35 1011.76 1012.16 1012.53 1012.86 1013.15 1013.39 1013.61 1013.82 1014.04 1014.30 1014.59 1014.93 1015.30 1015.67 1016.03 1016.35 1016.63 1016.87 1017.08 1017.28 1017.48 1017.67 1017.85 1018.00 1018.10 1018.13 1018.10
1012.37 1012.18 1011.89 1011.50 1011.03 1010.50 1009.94 1009.36 1008.80 1008.32 1007.95 1007.72 1007.64 1007.72 1007.94 1008.28 1008.70 1009.16 1009.65 1010.14 1010.62 1011.08 1011.52 1011.93 1012.29 1012.60 1012.86 1013.08 1013.27 1013.46 1013.65 1013.88 1014.16 1014.47 1014.82 1015.19 1015.54 1015.87 1016.17 1016.43 1016.68 1016.91 1017.14 1017.38 1017.61 1017.82 1017.99 1018.10 1018.16
1012.16 1011.96 1011.66 1011.28 1010.83 1010.31 1009.75 1009.18 1008.61 1008.10 1007.69 1007.42 1007.30 1007.34 1007.53 1007.84 1008.25 1008.72 1009.22 1009.74 1010.25 1010.74 1011.21 1011.65 1012.04 1012.38 1012.67 1012.92 1013.13 1013.32 1013.52 1013.75 1014.01 1014.30 1014.63 1014.97 1015.31 1015.63 1015.93 1016.21 1016.48 1016.74 1017.02 1017.30 1017.60 1017.88 1018.13 1018.33 1018.47
1012.04 1011.83 1011.54 1011.17 1010.72 1010.22 1009.66 1009.07 1008.48 1007.95 1007.50 1007.19 1007.03 1007.03 1007.18 1007.46 1007.83 1008.27 1008.76 1009.26 1009.77 1010.28 1010.79 1011.27 1011.73 1012.15 1012.53 1012.86 1013.14 1013.40 1013.64 1013.89 1014.16 1014.44 1014.75 1015.07 1015.38 1015.69 1015.98 1016.25 1016.53 1016.81 1017.12 1017.45 1017.79 1018.14 1018.47 1018.75 1018.97
1012.00 1011.80 1011.51 1011.15 1010.71 1010.20 1009.63 1009.02 1008.42 1007.86 1007.38 1007.04 1006.84 1006.80 1006.91 1007.13 1007.45 1007.83 1008.25 1008.71 1009.19 1009.70 1010.23 1010.77 1011.32 1011.86 1012.37 1012.83 1013.25 1013.62 1013.95 1014.25 1014.55 1014.84 1015.14 1015.43 1015.73 1016.00 1016.27 1016.53 1016.80 1017.09 1017.40 1017.76 1018.14 1018.53 1018.92 1019.26 1019.54
1012.03 1011.83 1011.56 1011.21 1010.77 1010.26 1009.67 1009.05 1008.42 1007.83 1007.34 1006.97 1006.75 1006.67 1006.72 1006.88 1007.11 1007.40 1007.73 1008.10 1008.52 1009.00 1009.54 1010.14 1010.79 1011.47 1012.14 1012.77 1013.36 1013.88 1014.33 1014.73 1015.08 1015.40 1015.70 1015.99 1016.26 1016.51 1016.75 1016.98 1017.23 1017.50 1017.80 1018.15 1018.54 1018.96 1019.37 1019.74 1020.06
1012.07 1011.89 1011.64 1011.31 1010.89 1010.38 1009.78 1009.14 1008.50 1007.90 1007.40 1007.02 1006.78 1006.67 1006.67 1006.75 1006.88 1007.06 1007.26 1007.52 1007.84 1008.26 1008.79 1009.43 1010.17 1010.98 1011.82 1012.64 1013.40 1014.09 1014.69 1015.19 1015.62 1015.99 1016.32 1016.61 1016.86 1017.10 1017.31 1017.52 1017.73 1017.97 1018.24 1018.57 1018.94 1019.34 1019.75 1020.13 1020.45
1012.08 1011.94 1011.74 1011.45 1011.05 1010.55 1009.96 1009.31 1008.67 1008.07 1007.57 1007.20 1006.95 1006.83 1006.79 1006.80 1006.83 1006.88 1006.95 1007.07 1007.27 1007.60 1008.09 1008.74 1009.55 1010.46 1011.44 1012.42 1013.36 1014.20 1014.94 1015.57 1016.08 1016.52 1016.88 1017.18 1017.45 1017.67 1017.87 1018.06 1018.24 1018.44 1018.67 1018.95 1019.28 1019.65 1020.03 1020.39 1020.70
1012.01 1011.94 1011.81 1011.58 1011.23 1010.76 1010.20 1009.57 1008.94 1008.36 1007.89 1007.54 1007.32 1007.19 1007.13 1007.09 1007.04 1006.97 1006.90 1006.88 1006.95 1007.18 1007.59 1008.21 1009.03 1010.01 1011.08 1012.18 1013.25 1014.22 1015.08 1015.81 1016.41 1016.91 1017.32 1017.66 1017.95 1018.19 1018.39 1018.57 1018.73 1018.89 1019.08 1019.31 1019.58 1019.90 1020.23 1020.56 1020.83
1011.84 1011.87 1011.83 1011.69 1011.41 1011.00 1010.48 1009.89 1009.30 1008.78 1008.35 1008.06 1007.88 1007.79 1007.74 1007.67 1007.57 1007.41 1007.23 1007.08 1007.02 1007.12 1007.43 1007.98 1008.76 1009.74 1010.84 1012.00 1013.13 1014.18 1015.13 1015.93 1016.61 1017.17 1017.64 1018.03 1018.36 1018.64 1018.86 1019.04 1019.20 1019.34 1019.50 1019.68 1019.89 1020.15 1020.42 1020.69 1020.92
1011.56 1011.70 1011.78 1011.74 1011.55 1011.22 1010.77 1010.25 1009.73 1009.28 1008.94 1008.73 1008.63 1008.61 1008.60 1008.56 1008.44 1008.24 1007.98 1007.72 1007.54 1007.51 1007.70 1008.14 1008.84 1009.75 1010.81 1011.95 1013.09 1014.17 1015.14 1015.99 1016.72 1017.34 1017.87 1018.32 1018.71 1019.04 1019.30 1019.51 1019.68 1019.82 1019.95 1020.09 1020.25 1020.45 1020.66 1020.87 1021.05
1011.20 1011.45 1011.64 1011.70 1011.62 1011.39 1011.03 1010.60 1010.17 1009.82 1009.59 1009.49 1009.50 1009.59 1009.67 1009.69 1009.61 1009.40 1009.10 1008.77 1008.49 1008.35 1008.40 1008.71 1009.28 1010.08 1011.05 1012.11 1013.20 1014.25 1015.22 1016.08 1016.83 1017.49 1018.07 1018.59 1019.04 1019.42 1019.75 1020.00 1020.19 1020.34 1020.45 1020.56 1020.68 1020.82 1020.98 1021.13 1021.26
1010.78 1011.12 1011.40 1011.57 1011.59 1011.45 1011.19 1010.87 1010.56 1010.33 1010.23 1010.27 1010.42 1010.64 1010.84 1010.97 1010.96 1010.79 1010.50 1010.14 1009.79 1009.54 1009.48 1009.64 1010.07 1010.72 1011.55 1012.50 1013.49 1014.47 1015.39 1016.24 1017.00 1017.69 1018.31 1018.88 1019.38 1019.83 1020.20 1020.50 1020.72 1020.88 1020.99 1021.08 1021.16 1021.25 1021.36 1021.46 1021.54
1010.32 1010.72 1011.07 1011.32 1011.42 1011.37 1011.22 1011.01 1010.83 1010.74 1010.78 1010.98 1011.29 1011.66 1012.01 1012.26 1012.35 1012.26 1012.01 1011.65 1011.27 1010.95 1010.78 1010.82 1011.10 1011.60 1012.29 1013.10 1013.97 1014.86 1015.72 1016.52 1017.27 1017.97 1018.61 1019.21 1019.76 1020.25 1020.66 1020.99 1021.24 1021.40 1021.51 1021.58 1021.64 1021.69 1021.75 1021.81 1021.84
1009.87 1010.28 1010.66 1010.94 1011.11 1011.14 1011.09 1011.00 1010.94 1011.00 1011.20 1011.56 1012.03 1012.56 1013.05 1013.44 1013.65 1013.66 1013.47 1013.15 1012.76 1012.41 1012.17 1012.10 1012.26 1012.63 1013.17 1013.85 1014.61 1015.40 1016.18 1016.94 1017.65 1018.33 1018.98 1019.59 1020.15 1020.66 1021.09 1021.44 1021.70 1021.87 1021.97 1022.02 1022.05 1022.08 1022.10 1022.12 1022.12
1009.44 1009.82 1010.19 1010.49 1010.68 1010.78 1010.81 1010.83 1010.91 1011.11 1011.46 1011.96 1012.58 1013.26 1013.89 1014.41 1014.74 1014.84 1014.74 1014.47 1014.11 1013.76 1013.48 1013.36 1013.43 1013.69 1014.13 1014.70 1015.36 1016.06 1016.77 1017.46 1018.13 1018.78 1019.40 1019.99 1020.54 1021.04 1021.47 1021.81 1022.06 1022.23 1022.32 1022.36 1022.36 1022.36 1022.36 1022.35 1022.33
1009.08 1009.40 1009.71 1009.99 1010.20 1010.34 1010.44 1010.56 1010.76 1011.09 1011.57 1012.21 1012.95 1013.74 1014.49 1015.11 1015.54 1015.74 1015.72 1015.52 1015.22 1014.89 1014.63 1014.49 1014.52 1014.73 1015.10 1015.60 1016.18 1016.81 1017.45 1018.08 1018.70 1019.29 1019.86 1020.41 1020.92 1021.39 1021.79 1022.10 1022.34 1022.48 1022.56 1022.58 1022.57 1022.54 1022.52 1022.49 1022.46
1008.83 1009.06 1009.30 1009.54 1009.74 1009.90 1010.06 1010.27 1010.57 1011.01 1011.60 1012.34 1013.18 1014.05 1014.87 1015.56 1016.06 1016.33 1016.38 1016.26 1016.03 1015.77 1015.55 1015.45 1015.49 1015.70 1016.05 1016.51 1017.05 1017.62 1018.20 1018.77 1019.32 1019.85 1020.35 1020.83 1021.28 1021.70 1022.05 1022.34 1022.54 1022.67 1022.73 1022.73 1022.70 1022.66 1022.62 1022.58 1022.53
1008.73 1008.86 1009.03 1009.21 1009.39 1009.57 1009.78 1010.06 1010.44 1010.96 1011.64 1012.44 1013.33 1014.24 1015.10 1015.82 1016.36 1016.68 1016.80 1016.76 1016.61 1016.43 1016.30 1016.26 1016.36 1016.60 1016.96 1017.42 1017.94 1018.47 1019.00 1019.51 1019.99 1020.43 1020.86 1021.27 1021.65 1022.00 1022.31 1022.55 1022.74 1022.85 1022.90 1022.89 1022.85 1022.79 1022.73 1022.67 1022.61
Thickness
5776 5783 5791 5792 5787 5786 5786 5798 5805 5806 5810 5815 5814 5810 5805 5801 5794 5786 5804 5813 5808 5803 5795 5783 5778 5775 5773 5771 5769 5768 5766 5764 5761 5759 5757 5755 5753 5751 5749 5747 5746 5745 5744 5743 5743 5742 5741 5740 5739
5779 5782 5784 5785 5774 5771 5785 5800 5801 5805 5810 5815 5812 5807 5803 5803 5805 5802 5805 5807 5805 5801 5792 5784 5776 5772 5769 5767 5765 5764 5762 5760 5757 5755 5753 5751 5749 5747 5745 5743 5742 5741 5740 5740 5739 5738 5737 5736 5735
5776 5779 5777 5774 5768 5770 5782 5799 5802 5810 5814 5811 5809 5810 5805 5801 5803 5803 5807 5806 5803 5798 5792 5782 5773 5769 5766 5763 5761 5759 5757 5755 5753 5751 5749 5747 5745 5743 5741 5739 5738 5737 5737 5736 5735 5734 5733 5732 5731
5774 5772 5772 5763 5764 5782 5788 5797 5803 5805 5810 5813 5810 5804 5808 5809 5809 5810 5808 5806 5803 5797 5791 5780 5772 5767 5764 5761 5758 5756 5754 5751 5749 5747 5745 5743 5741 5739 5737 5736 5734 5734 5733 5732 5731 5730 5729 5728 5727
5772 5766 5757 5757 5768 5786 5796 5801 5802 5801 5804 5808 5808 5803 5802 5808 5814 5812 5807 5805 5802 5797 5791 5780 5771 5766 5762 5758 5755 5753 5751 5748 5746 5744 5742 5739 5737 5735 5733 5732 5731 5730 5729 5729 5727 5726 5725 5724 5724
5761 5759 5747 5753 5770 5785 5794 5802 5802 5802 5808 5811 5809 5804 5804 5810 5809 5808 5808 5804 5802 5797 5792 5781 5770 5765 5760 5757 5754 5751 5749 5746 5743 5741 5738 5736 5734 5731 5730 5728 5727 5727 5726 5725 5724 5723 5722 5721 5720
5755 5752 5749 5757 5765 5774 5789 5804 5802 5803 5807 5813 5817 5805 5806 5808 5810 5810 5808 5804 5802 5797 5793 5783 5774 5766 5760 5756 5753 5750 5747 5744 5742 5739 5736 5733 5731 5729 5727 5725 5725 5724 5723 5722 5721 5720 5719 5718 5717
5762 5754 5749 5756 5758 5769 5792 5801 5807 5807 5811 5827 5824 5808 5807 5810 5811 5809 5806 5804 5801 5797 5793 5785 5778 5772 5765 5759 5753 5749 5746 5743 5740 5737 5734 5732 5729 5727 5725 5724 5722 5721 5720 5719 5718 5717 5716 5715 5714
5756 5743 5747 5756 5760 5773 5792 5795 5808 5817 5817 5822 5825 5823 5824 5820 5812 5805 5802 5799 5797 5794 5791 5786 5781 5775 5770 5764 5756 5750 5745 5741 5738 5736 5733 5731 5731 5730 5726 5724 5721 5719 5718 5716 5715 5714 5713 5713 5713
5747 5741 5753 5767 5773 5779 5788 5793 5802 5807 5808 5811 5817 5824 5823 5816 5810 5803 5800 5797 5794 5791 5790 5787 5783 5777 5772 5767 5759 5753 5748 5744 5741 5740 5735 5733 5734 5732 5729 5723 5719 5717 5716 5714 5713 5711 5711 5713 5716
5748 5747 5759 5765 5773 5777 5782 5793 5804 5803 5803 5814 5816 5819 5817 5813 5810 5806 5804 5801 5798 5794 5790 5790 5783 5778 5774 5768 5762 5757 5753 5748 5743 5742 5738 5735 5733 5730 5727 5724 5718 5716 5715 5716 5713 5713 5715 5716 5714
5747 5750 5757 5763 5773 5775 5781 5791 5798 5805 5815 5830 5832 5828 5818 5813 5812 5810 5807 5805 5802 5797 5791 5789 5784 5777 5773 5769 5764 5758 5755 5750 5747 5741 5737 5735 5731 5729 5728 5723 5722 5719 5717 5716 5716 5714 5712 5711 5710
5742 5748 5755 5762 5770 5777 5783 5789 5797 5808 5823 5830 5832 5829 5821 5819 5818 5816 5813 5809 5805 5798 5793 5789 5784 5777 5771 5766 5762 5758 5754 5751 5746 5741 5735 5733 5730 5727 5725 5722 5717 5717 5716 5714 5712 5712 5709 5708 5707
5748 5749 5754 5762 5769 5777 5779 5791 5798 5811 5825 5825 5825 5825 5825 5823 5821 5818 5813 5809 5805 5799 5794 5790 5782 5776 5769 5763 5759 5756 5753 5747 5746 5739 5735 5729 5727 5724 5720 5716 5712 5712 5711 5711 5709 5707 5704 5704 5703
5749 5743 5749 5760 5769 5778 5782 5783 5798 5815 5822 5820 5823 5824 5825 5826 5824 5820 5818 5813 5809 5801 5795 5788 5782 5776 5769 5763 5757 5754 5750 5746 5741 5736 5730 5725 5721 5717 5713 5711 5707 5706 5703 5701 5700 5699 5698 5696 5694
5739 5736 5738 5761 5770 5778 5773 5777 5801 5814 5816 5816 5821 5823 5822 5824 5826 5825 5823 5816 5811 5804 5795 5788 5783 5776 5768 5763 5757 5754 5749 5743 5737 5731 5725 5719 5715 5710 5705 5702 5700 5696 5694 5692 5691 5691 5689 5687 5685
5733 5733 5741 5756 5768 5775 5774 5782 5798 5810 5811 5812 5817 5820 5820 5820 5823 5826 5824 5818 5810 5804 5796 5788 5783 5776 5769 5761 5755 5750 5743 5736 5730 5723 5717 5711 5706 5701 5696 5692 5688 5685 5683 5682 5681 5678 5677 5674 5671
5730 5737 5740 5749 5761 5765 5768 5778 5791 5802 5805 5809 5813 5816 5817 5818 5821 5824 5822 5819 5811 5804 5796 5788 5781 5774 5767 5759 5750 5743 5736 5727 5719 5712 5706 5700 5695 5690 5686 5681 5676 5674 5672 5670 5668 5665 5663 5662 5660
5733 5734 5737 5747 5757 5758 5762 5769 5782 5794 5798 5802 5806 5810 5813 5816 5823 5824 5821 5817 5810 5802 5794 5787 5779 5772 5764 5756 5747 5737 5727 5716 5707 5700 5694 5689 5683 5679 5675 5670 5666 5663 5662 5659 5658 5656 5652 5650 5650
5719 5721 5729 5738 5748 5749 5755 5761 5778 5786 5789 5792 5795 5800 5804 5809 5813 5815 5816 5813 5808 5801 5793 5786 5777 5771 5762 5754 5744 5732 5719 5707 5697 5690 5685 5679 5673 5669 5665 5661 5659 5655 5653 5651 5650 5647 5645 5643 5641
5711 5716 5725 5730 5740 5744 5742 5749 5766 5779 5783 5785 5788 5791 5795 5797 5801 5805 5808 5808 5806 5799 5793 5786 5777 5769 5759 5749 5736 5723 5710 5700 5690 5683 5677 5672 5666 5661 5657 5653 5650 5646 5645 5642 5639 5638 5637 5636 5632
5705 5721 5724 5724 5724 5737 5738 5740 5765 5768 5768 5771 5775 5778 5780 5785 5791 5796 5800 5801 5800 5797 5791 5783 5773 5763 5753 5742 5731 5720 5709 5696 5687 5680 5675 5668 5662 5654 5648 5645 5642 5639 5637 5634 5631 5629 5628 5626 5626
5714 5726 5722 5721 5721 5722 5730 5729 5758 5757 5756 5758 5759 5758 5762 5767 5774 5779 5783 5787 5789 5787 5782 5774 5764 5754 5745 5735 5725 5716 5704 5695 5685 5676 5669 5661 5653 5647 5640 5636 5633 5630 5627 5625 5622 5619 5618 5617 5616
5716 5714 5713 5715 5718 5705 5725 5726 5742 5751 5745 5744 5743 5741 5742 5748 5754 5759 5764 5767 5768 5768 5764 5758 5749 5740 5732 5725 5716 5708 5697 5688 5679 5670 5661 5654 5646 5639 5633 5628 5624 5621 5618 5615 5611 5609 5607 5605 5601
5706 5697 5692 5695 5699 5710 5731 5724 5738 5732 5731 5727 5725 5724 5726 5732 5736 5739 5742 5744 5744 5744 5742 5739 5732 5724 5718 5711 5704 5697 5689 5680 5670 5661 5653 5644 5636 5629 5624 5619 5615 5612 5609 5605 5601 5597 5594 5591 5587
5700 5702 5694 5695 5705 5720 5717 5721 5728 5726 5721 5717 5715 5714 5714 5715 5718 5720 5722 5723 5724 5723 5722 5719 5714 5708 5702 5697 5690 5683 5677 5668 5659 5650 5642 5634 5626 5619 5613 5609 5604 5601 5597 5593 5589 5586 5582 5577 5573
5698 5701 5715 5706 5708 5710 5723 5719 5714 5716 5710 5707 5705 5703 5700 5700 5701 5703 5704 5705 5706 5705 5704 5702 5698 5692 5687 5681 5675 5668 5661 5653 5645 5636 5629 5621 5614 5608 5602 5597 5593 5589 5584 5580 5576 5573 5568 5564 5561
5710 5709 5702 5693 5686 5690 5710 5712 5717 5707 5702 5697 5695 5691 5688 5687 5687 5687 5688 5688 5689 5689 5687 5686 5682 5677 5672 5667 5661 5653 5646 5639 5631 5624 5616 5608 5601 5595 5590 5584 5580 5575 5571 5567 5563 5560 5554 5549 5545
5695 5695 5696 5700 5705 5696 5697 5713 5720 5712 5702 5692 5685 5680 5677 5675 5673 5672 5673 5673 5674 5674 5673 5670 5666 5662 5657 5651 5645 5638 5631 5624 5617 5610 5602 5594 5588 5582 5577 5571 5566 5562 5557 5553 5548 5545 5539 5534 5529
5701 5699 5696 5687 5690 5697 5699 5699 5704 5702 5695 5686 5676 5669 5665 5663 5661 5660 5660 5660 5660 5659 5657 5654 5651 5647 5641 5635 5629 5622 5615 5608 5601 5594 5587 5580 5574 5568 5562 5557 5552 5547 5542 5537 5533 5528 5523 5518 5513